Hollywood, FL

8:59 AM EST on February 24, 2017 (GMT -0500)
North Perry

Weather History for KHWO - January, 2013

Change the Weather History Date:

Monday, January 14, 2013

  Actual Average (KFLL) Record (KFLL)
Temperature  
Mean Temperature 73 °F -  
Max Temperature 80 °F 74 °F 88 °F (1979)
Min Temperature 66 °F 56 °F 34 °F (1956)
Cooling Degree Days 8    
Growing Degree Days 23 (Base 50)    
Moisture  
Dew Point 62 °F    
Average Humidity 68    
Maximum Humidity 81    
Minimum Humidity 52    
Precipitation  
Precipitation 0.00 in - - ()
Sea Level Pressure  
Sea Level Pressure 30.17 in    
Wind  
Wind Speed 6 mph (ESE)    
Max Wind Speed 14 mph    
Max Gust Speed 21 mph    
Visibility 10 miles    
Events      
Averages and records for this station are not official NWS values.
T = Trace of Precipitation, MM = Missing Value Source: NWS Daily Summary

Daily Weather History Graph

Daily Weather History Graph

Search for Another Location

Airport or City:

Trip Planner

Search our weather history database for the weather conditions in past years. The results will help you decide how hot, cold, wet, or windy it might be!

Date:

Astronomy

Jan. 14, 2013 Rise Set
Actual Time 7:09 AM EST 5:50 PM EST
Civil Twilight 6:44 AM EST 6:15 PM EST
Nautical Twilight 6:16 AM EST 6:43 PM EST
Astronomical Twilight 5:48 AM EST 7:11 PM EST
Moon 9:05 AM EST (1/14) 9:08 PM EST (1/14)
Length of Visible Light 11h 30m
Length of Day
10h 41m
Waxing Crescent, 11% of the Moon is Illuminated
Jan 14
Waxing Crescent
Jan 18
First Quarter
Jan 26
Full
Feb 3
Last Quarter
Feb 10
New

Hourly Weather History & Observations

Time (EST) Temp. Heat Index Dew Point Humidity Pressure Visibility Wind Dir Wind Speed Gust Speed Precip Events Conditions
12:53 AM 72.0 °F - 60.1 °F 66% 30.16 in 10.0 mi ESE 5.8 mph - N/A   Scattered Clouds
1:53 AM 71.1 °F - 60.1 °F 68% 30.16 in 10.0 mi ESE 4.6 mph - N/A   Clear
2:53 AM 68.0 °F - 59.0 °F 73% 30.16 in 10.0 mi Calm Calm - N/A   Partly Cloudy
3:53 AM 66.9 °F - 60.1 °F 79% 30.15 in 10.0 mi Calm Calm - N/A   Mostly Cloudy
4:53 AM 72.0 °F - 62.1 °F 71% 30.15 in 10.0 mi SE 5.8 mph - N/A   Mostly Cloudy
5:53 AM 70.0 °F - 61.0 °F 73% 30.15 in 10.0 mi ESE 3.5 mph - N/A   Partly Cloudy
6:53 AM 66.0 °F - 60.1 °F 81% 30.17 in 10.0 mi East 3.5 mph - N/A   Scattered Clouds
7:53 AM 69.1 °F - 63.0 °F 81% 30.18 in 10.0 mi Calm Calm - N/A   Partly Cloudy
8:53 AM 75.9 °F - 61.0 °F 60% 30.18 in 10.0 mi ESE 13.8 mph - N/A   Partly Cloudy
9:53 AM 78.1 °F - 61.0 °F 56% 30.20 in 10.0 mi ESE 13.8 mph - N/A   Scattered Clouds
10:53 AM 78.1 °F - 62.1 °F 58% 30.19 in 10.0 mi ESE 12.7 mph - N/A   Mostly Cloudy
11:53 AM 78.1 °F - 61.0 °F 56% 30.17 in 10.0 mi SE 11.5 mph - N/A   Mostly Cloudy
12:53 PM 79.0 °F - 61.0 °F 54% 30.16 in 10.0 mi SE 11.5 mph - N/A   Partly Cloudy
1:53 PM 80.1 °F 81.1 °F 61.0 °F 52% 30.14 in 10.0 mi SE 13.8 mph 20.7 mph N/A   Clear
2:53 PM 80.1 °F 81.2 °F 62.1 °F 54% 30.15 in 10.0 mi SE 10.4 mph - N/A   Scattered Clouds
3:53 PM 78.1 °F - 62.1 °F 58% 30.15 in 10.0 mi SE 12.7 mph - N/A   Clear
4:53 PM 75.9 °F - 62.1 °F 62% 30.17 in 10.0 mi ESE 11.5 mph - N/A   Partly Cloudy
5:53 PM 73.9 °F - 63.0 °F 68% 30.18 in 10.0 mi East 8.1 mph - N/A   Partly Cloudy
6:53 PM 73.0 °F - 63.0 °F 71% 30.19 in 10.0 mi East 5.8 mph - N/A   Clear
7:53 PM 72.0 °F - 63.0 °F 73% 30.19 in 10.0 mi NE 3.5 mph - N/A   Clear
8:53 PM 70.0 °F - 63.0 °F 78% 30.19 in 10.0 mi ENE 3.5 mph - N/A   Clear
9:53 PM 71.1 °F - 64.0 °F 78% 30.18 in 10.0 mi ESE 5.8 mph - N/A   Clear
10:53 PM 71.1 °F - 63.0 °F 75% 30.17 in 10.0 mi ESE 4.6 mph - N/A   Clear
11:53 PM 68.0 °F - 62.1 °F 81% 30.16 in 10.0 mi Calm Calm - N/A   Clear